sat.trackr.live / text

‹ back to catalog

STARLINK-35419

NORAD 66559 · 2025-268C

PAYLOAD ACTIVE UNKNOWN

§ Identity

Operator
Country
US
Launch date
2025-11-21
Launch site
AFETR
Launch vehicle
Mass (kg)
RCS (m²)

Purposes: comms

External: N2YO · Heavens-Above · Gunter

§ Orbital elements

Epoch: 2026-05-25T02:13:40.825632Z

Period
94.27 min
Inclination
43.0024°
Eccentricity
0.0001254
Mean motion
15.27579251 rev/d
Perigee alt
482.2 km
Apogee alt
483.9 km
Semi-major
6,861.2 km
B*
5.6753e-4
RAAN
275.6636°
Arg perigee
257.3539°
Mean anomaly
102.7172°
Rev number
2,964

§ Raw data

STARLINK-354191 66559U 25268C   26145.09283363  .00015387  00000+0  56753-3 0  99982 66559  43.0024 275.6636 0001254 257.3539 102.7172 15.27579251 29642

JSON: /api/v1/satellites/66559 · /tle

For live sub-satellite position, see the globe view (requires WebGL).

§ Visibility from observer

Set your observer location to see the next 7 days of passes ≥ 10°. The values pass through the URL so the page stays shareable.

No JS? Fill the form by hand. The geolocation button needs JavaScript.